[[{"header":{"parameterUnit":"m.s-1","parameterCategory":1,"la1":30.2991,"la2":30.254,"lo1":-89.0895,"lo2":-89.0444,"dy":0.0017,"dx":0.0017,"nx":28,"ny":28,"refTime":"2025-06-06T21:00:00:Z","depth":0,"parameterNumber":2,"parameterNumberName":"U-component_of_WINDS"},"data":[0,0,0,0,0,0,0,0,0,0,0,0,0,0,0,0,0,0,0,0,0,0,0,0,0,0,0,0,0,0,0,0,0,0,0,0,0,0,0,0,0,0,0,0,0,0,0,0,0,0,0,0,0,0,0,0,0,0,3.8607,3.8608,0,3.8761,3.8763,3.8765,3.875,3.8748,3.8746,3.8743,3.8899,3.8906,3.8912,0,0,0,0,0,0,0,0,0,0,0,0,0,3.8296,3.8302,3.8606,3.8608,3.861,3.8761,3.8763,3.8765,3.8751,3.8748,3.8745,3.8742,3.8897,3.8905,3.8912,0,0,0,0,0,0,0,0,0,0,0,0,0,3.8439,3.8304,3.8606,3.8621,3.8624,3.876,3.8763,3.8766,3.8751,3.8748,3.8744,3.8741,3.8895,3.8904,3.8913,3.9043,0,0,3.8943,3.8947,0,0,0,0,0,0,0,0,3.8431,3.845,3.8617,3.8621,3.8624,3.8733,3.8711,3.8859,3.8752,3.8703,3.8743,3.8739,3.8847,3.886,3.8897,3.9051,3.9057,3.8943,3.8949,3.8953,3.8956,0,0,0,0,0,0,0,3.8421,3.8444,3.8668,3.862,3.8624,3.862,3.8636,3.8739,3.8793,3.8707,3.8706,3.8725,3.8848,3.8888,3.89,3.906,3.8943,3.8952,3.8958,3.8961,3.9326,3.933,0,0,0,0,0,0,3.8408,3.8435,3.8663,3.8672,3.8517,3.8628,3.8646,3.8702,3.8792,3.8802,3.8728,3.8724,3.8873,3.8889,3.8906,3.9062,3.8953,3.8962,3.8968,3.9322,3.9327,3.9331,0,0,0,0,0,0,3.8401,3.8428,3.8656,3.8554,3.8582,3.8637,3.8699,3.8706,3.8746,3.8808,3.8817,3.8759,3.8871,3.8892,3.9009,3.9067,3.8967,3.8975,3.9318,3.9324,3.9329,3.9377,0,0,0,0,0,0,3.8392,3.8426,3.8477,3.8555,3.8588,3.8758,3.8703,3.8712,3.8763,3.8759,3.8839,3.8849,3.887,3.8995,3.9018,3.9079,3.8983,3.9313,3.932,3.9327,3.937,3.9384,3.9395,0,0,0,0,0,3.8381,3.8484,3.8479,3.8507,3.8653,3.8762,3.878,3.8803,3.8768,3.8818,3.8858,3.8846,3.9058,3.9007,3.9033,3.9097,3.9309,3.9318,3.9327,3.9365,3.9381,3.9395,0,0,0,0,0,0,3.841,3.8494,3.849,3.8621,3.8684,3.8759,3.8823,3.882,3.8894,3.8887,3.8912,3.893,3.9047,3.9084,3.9026,3.9227,3.9178,3.9193,3.9198,3.9214,3.9226,3.9214,3.8991,0,0,0,0,0,3.8432,3.8514,3.8583,3.8692,3.8724,3.8768,3.8817,3.8829,3.8895,3.8921,3.8969,3.9033,3.9114,3.9166,3.9244,3.9376,3.9392,3.9433,3.9445,3.9455,3.9467,3.9538,3.9556,3.9361,3.9361,3.936,0,0,3.8477,3.8533,3.8584,3.8699,3.8749,3.8833,3.8791,3.8881,3.8943,3.8935,3.9047,3.9085,3.9158,3.9282,3.934,3.9317,3.9525,3.9467,3.9474,3.9481,3.9549,3.9567,3.9583,3.9367,3.9366,3.9365,0,0,3.8601,3.8654,3.8749,3.88,3.8877,3.8906,3.8929,3.9005,3.9029,3.9143,3.9138,3.9212,3.9351,3.9402,3.9447,3.9591,3.9582,3.9616,3.968,3.9748,3.9764,3.9777,3.9827,3.9844,3.9628,3.9628,3.9628,0,3.8647,3.8774,3.8798,3.8889,3.8939,3.8937,3.9033,3.9081,3.9179,3.9213,3.9187,3.9361,3.941,3.9545,3.958,3.9617,3.9643,3.9606,3.976,3.9774,3.9787,3.9834,3.9853,3.9631,3.9631,3.963,3.963,0,3.8826,3.8913,3.8981,3.9076,3.9134,3.9227,3.9264,3.932,3.9328,3.9359,3.9474,3.9533,3.9622,3.9655,3.9664,3.9792,3.9775,3.9754,3.9706,3.9808,3.9853,3.9871,3.9636,3.9635,3.9634,3.9633,0,0,3.8971,3.9079,3.9103,3.9145,3.923,3.9298,3.9391,3.9478,3.9524,3.9593,3.9669,3.9787,3.9768,3.9818,3.9832,3.9893,4.0001,3.9864,3.9866,3.9886,4.0143,4.0157,4.0177,3.9996,4.0,4.0003,4.0136,0,3.9102,3.9266,3.9291,3.9435,3.9515,3.9514,3.9595,3.9655,3.9687,3.9759,3.9794,3.9876,3.9846,3.9876,3.9936,3.9975,4.0052,3.9966,4.0066,4.0069,4.0045,4.0201,4.0216,4.0339,4.0154,4.0157,4.0159,0,3.9276,3.9349,3.9502,3.9575,3.9609,3.9681,3.9763,3.9832,3.99,3.9919,3.9975,3.9982,4.0076,4.0026,4.0155,4.0096,4.0139,4.0164,4.0169,4.0177,4.0119,4.0211,4.0379,4.0396,4.0188,4.0185,4.0183,0,3.9364,3.95,3.9609,3.9646,3.9734,3.9784,3.9824,3.9888,3.9939,4.001,4.0043,4.0124,4.0168,4.0231,4.0258,4.0219,4.0386,4.0338,4.0402,4.0402,4.0435,4.0432,4.061,4.0467,4.0467,4.0467,4.0466,0,3.9506,3.9599,3.9649,3.9715,3.9819,3.9846,3.9947,3.9985,4.0042,4.0115,4.012,4.0188,4.0222,4.0294,4.0317,4.0419,4.044,4.0457,4.0461,4.0455,4.0452,4.0481,4.0473,4.0472,4.047,4.0469,4.0469,0,3.962,3.9658,3.9775,3.985,3.9871,3.9944,4.0007,4.0071,4.0103,4.0194,4.0218,4.0267,4.0353,4.0388,4.0493,4.0508,4.0626,4.0625,4.0603,4.0603,4.0665,4.0658,4.0866,4.0893,4.0734,4.0736,4.0737,0,3.9707,3.9778,3.986,3.991,3.9951,4.003,4.0082,4.0112,4.0165,4.0248,4.0302,4.0388,4.0458,4.0595,4.064,4.072,4.0719,4.0787,4.0731,4.0722,4.0717,4.0712,4.0718,4.0796,4.0797,4.0799,4.08,0,3.9856,3.9871,3.9946,4.0028,4.009,4.0156,4.022,4.026,4.0299,4.0359,4.0447,4.0502,4.0609,4.0694,4.0777,4.0816,4.0814,4.0817,4.0836,4.0829,4.0812,4.082,4.0628,4.0812,4.0811,4.081,4.0809,4.0809,3.9957,4.002,4.0088,4.0171,4.0222,4.0282,4.0345,4.0385,4.046,4.055,4.0563,4.0657,4.0722,4.0833,4.0876,4.0949,4.0931,4.0959,4.0966,4.0972,4.0974,4.0803,4.0965,4.0964,4.0964,4.0964,4.0964,0,4.0105,4.0148,4.0225,4.0314,4.0379,4.0374,4.0444,4.0499,4.0581,4.0643,4.0712,4.0813,4.0895,4.0947,4.103,4.1078,4.1079,4.1098,4.1094,4.1102,4.0987,4.0961,4.1096,4.1096,4.1096,4.1096,4.1096,4.1096,4.0189,4.0294,4.0317,4.0447,4.049,4.0583,4.0623,4.0678,4.0727,4.084,4.0908,4.0942,4.0999,4.1086,4.1161,4.1174,4.1203,4.1223,4.1234,4.1125,4.1111,4.1098,4.1073,4.123,4.123,4.1344,4.1345,4.1346]},{"header":{"parameterUnit":"m.s-1","parameterCategory":1,"la1":30.2991,"la2":30.254,"lo1":-89.0895,"lo2":-89.0444,"dy":0.0017,"dx":0.0017,"nx":28,"ny":28,"refTime":"2025-06-06T21:00:00:Z","depth":0,"parameterNumber":3,"parameterNumberName":"V-component_of_WINDS"},"data":[0,0,0,0,0,0,0,0,0,0,0,0,0,0,0,0,0,0,0,0,0,0,0,0,0,0,0,0,0,0,0,0,0,0,0,0,0,0,0,0,0,0,0,0,0,0,0,0,0,0,0,0,0,0,0,0,0,0,4.3774,4.3776,0,4.3915,4.3916,4.3918,4.3924,4.3922,4.3921,4.3919,4.4059,4.4064,4.4069,0,0,0,0,0,0,0,0,0,0,0,0,0,4.3506,4.3511,4.3774,4.3776,4.3778,4.3915,4.3917,4.3918,4.3924,4.3922,4.392,4.3918,4.4057,4.4063,4.4069,0,0,0,0,0,0,0,0,0,0,0,0,0,4.3632,4.3513,4.3774,4.3797,4.3801,4.3914,4.3917,4.3919,4.3925,4.3922,4.392,4.3917,4.4055,4.4062,4.407,4.4169,0,0,4.4094,4.4098,0,0,0,0,0,0,0,0,4.3625,4.3642,4.3792,4.3796,4.38,4.3899,4.3873,4.4002,4.3925,4.3877,4.3919,4.3916,4.4007,4.4019,4.4051,4.4175,4.4181,4.4095,4.41,4.4103,4.4105,0,0,0,0,0,0,0,4.3616,4.3636,4.383,4.3794,4.3799,4.3799,4.3814,4.3898,4.3954,4.3881,4.3882,4.3899,4.4009,4.4043,4.4054,4.4183,4.4095,4.4102,4.4107,4.411,4.4395,4.4398,0,0,0,0,0,0,4.3604,4.3629,4.3825,4.3834,4.3705,4.3806,4.3823,4.387,4.3954,4.3964,4.3901,4.3899,4.4031,4.4045,4.4059,4.418,4.4103,4.4111,4.4115,4.4392,4.4396,4.4399,0,0,0,0,0,0,4.3598,4.3621,4.3819,4.3732,4.3757,4.3813,4.3866,4.3874,4.3908,4.3969,4.3978,4.3926,4.4029,4.4048,4.4142,4.4185,4.4114,4.4121,4.4389,4.4393,4.4397,4.4422,0,0,0,0,0,0,4.359,4.3619,4.3658,4.3732,4.3762,4.3901,4.3869,4.3879,4.3922,4.3921,4.3994,4.4004,4.4029,4.413,4.4149,4.4194,4.4127,4.4385,4.4391,4.4396,4.4418,4.4427,4.4434,0,0,0,0,0,4.3581,4.3658,4.366,4.3684,4.3812,4.3904,4.392,4.3949,4.3926,4.3965,4.4003,4.4002,4.4177,4.4139,4.4162,4.4209,4.4383,4.4389,4.4396,4.4414,4.4425,4.4434,0,0,0,0,0,0,4.3586,4.3668,4.3671,4.3776,4.3833,4.3905,4.3955,4.3959,4.4023,4.4019,4.405,4.4066,4.4159,4.4194,4.4151,4.4309,4.4277,4.4288,4.4283,4.4294,4.4302,4.4292,4.4134,0,0,0,0,0,4.3599,4.3668,4.3736,4.3822,4.3851,4.3898,4.3939,4.3956,4.4016,4.404,4.4085,4.4142,4.421,4.4254,4.432,4.4423,4.4438,4.4466,4.4475,4.4481,4.449,4.4547,4.4561,4.442,4.442,4.442,0,0,4.3627,4.3681,4.3722,4.3824,4.3871,4.394,4.3918,4.3993,4.4044,4.405,4.4142,4.4178,4.4243,4.4342,4.4388,4.4373,4.4533,4.4489,4.4494,4.45,4.4555,4.4569,4.458,4.4424,4.4424,4.4423,0,0,4.3714,4.3762,4.3839,4.3886,4.3957,4.3988,4.4006,4.4078,4.4102,4.4195,4.4202,4.4263,4.4379,4.4426,4.4464,4.457,4.457,4.459,4.4634,4.4689,4.47,4.471,4.4747,4.4761,4.4599,4.4599,4.4599,0,4.374,4.3847,4.3877,4.3953,4.3997,4.4007,4.4084,4.4128,4.4216,4.4246,4.4229,4.4376,4.442,4.4531,4.4556,4.4587,4.4609,4.4582,4.4696,4.4706,4.4716,4.4752,4.4766,4.4601,4.4601,4.4601,4.46,0,4.3875,4.3949,4.4002,4.4089,4.4139,4.4214,4.4255,4.4302,4.4315,4.4347,4.4442,4.4496,4.4573,4.46,4.4613,4.4712,4.4701,4.469,4.4658,4.4731,4.4766,4.478,4.4604,4.4603,4.4602,4.4602,0,0,4.3968,4.4072,4.4091,4.4131,4.421,4.4267,4.4343,4.442,4.4459,4.452,4.4584,4.4682,4.4673,4.4717,4.4734,4.4783,4.4863,4.4766,4.4768,4.4782,4.4976,4.4984,4.5,4.4864,4.4867,4.4869,4.497,0,4.4064,4.4201,4.4231,4.4348,4.4417,4.4428,4.4494,4.4549,4.4581,4.4643,4.4678,4.4747,4.4729,4.4756,4.4805,4.4843,4.4902,4.4836,4.4923,4.4925,4.4906,4.5018,4.5027,4.512,4.4984,4.4986,4.4988,0,4.4194,4.426,4.4384,4.4455,4.4485,4.4544,4.4617,4.4677,4.4739,4.4759,4.4809,4.4822,4.49,4.4865,4.4972,4.4927,4.4964,4.4988,4.4992,4.5001,4.4961,4.503,4.5151,4.5165,4.501,4.5008,4.5006,0,4.425,4.4369,4.446,4.4493,4.4578,4.4619,4.4656,4.4716,4.4761,4.4824,4.4853,4.4924,4.4963,4.5017,4.5048,4.502,4.5154,4.5121,4.5172,4.5171,4.52,4.5197,4.5328,4.5223,4.5223,4.5223,4.5222,0,4.4354,4.443,4.4486,4.4541,4.4627,4.4659,4.4742,4.4779,4.4833,4.4894,4.4907,4.4965,4.5003,4.5065,4.509,4.5176,4.5193,4.5211,4.5216,4.521,4.5208,4.5234,4.5229,4.5227,4.5226,4.5225,4.5224,0,4.4431,4.4471,4.4571,4.4643,4.4663,4.4723,4.4784,4.4838,4.4871,4.4949,4.4969,4.502,4.5095,4.5131,4.5223,4.524,4.5337,4.5338,4.5316,4.5318,4.5367,4.5362,4.552,4.5542,4.5422,4.5423,4.5424,0,4.4494,4.4553,4.4633,4.4676,4.4715,4.4784,4.483,4.4864,4.4911,4.4987,4.5032,4.5107,4.517,4.5288,4.5332,4.5402,4.5406,4.5456,4.5416,4.5408,4.5407,4.5403,4.5409,4.5463,4.5464,4.5465,4.5466,0,4.4603,4.462,4.4687,4.4761,4.4816,4.4876,4.4934,4.4968,4.5012,4.5064,4.5141,4.519,4.5285,4.5359,4.5433,4.547,4.5475,4.5478,4.5494,4.5488,4.5473,4.5482,4.5336,4.5474,4.5473,4.5473,4.5472,4.5472,4.4675,4.4728,4.4793,4.4867,4.4915,4.4969,4.5024,4.5064,4.5129,4.5211,4.5226,4.5308,4.5369,4.5469,4.5508,4.5572,4.5561,4.5583,4.5589,4.5594,4.5597,4.5463,4.5585,4.5585,4.5585,4.5585,4.5585,0,4.4784,4.4827,4.4895,4.4977,4.5035,4.5037,4.5101,4.5149,4.5222,4.5279,4.5341,4.5429,4.5502,4.5553,4.5626,4.5667,4.5672,4.5686,4.5683,4.5691,4.5602,4.5582,4.5681,4.5681,4.5681,4.5681,4.5681,4.5681,4.4848,4.4938,4.4963,4.5077,4.5119,4.5201,4.5238,4.5288,4.5334,4.5433,4.5494,4.5527,4.5581,4.5659,4.5726,4.5738,4.5765,4.5779,4.5792,4.5707,4.5697,4.5688,4.5669,4.5784,4.5784,4.5875,4.5876,4.5877]}]]